FW2952 Weather Reports


time (UTC)temp
F
wind
direction
speed
knots
gust
knots
rain 1hr
in
rain 24hr
in
rain mn
in
humidity
%
barometer
mb
20260510070323 35 300 1.7 3.5 0.00 0.00 0.00 87 1011.3
20260510064813 36 298 2.6 7.0 0.00 0.00 0.00 85 1011.2
20260510063312 36 265 3.5 7.8 0.00 0.00 0.00 83 1011.1
20260510061849 37 271 1.7 7.0 0.00 0.00 0.00 81 1011.1
20260510060323 37 278 0.9 5.2 0.00 0.00 0.00 81 1011.1
20260510054815 37 255 0.9 4.3 0.00 0.00 0.00 80 1011.0
20260510053350 37 267 0.9 3.5 0.00 0.00 0.00 81 1011.0
20260510051828 37 255 0.9 3.5 0.00 0.00 0.00 81 1010.9
20260510050325 37 233 0.0 4.3 0.00 0.00 0.00 81 1010.9
20260510044818 37 312 0.9 2.6 0.00 0.00 0.00 82 1010.9
20260510043314 37 243 0.0 1.7 0.00 0.00 0.00 83 1010.8
20260510041830 36 261 0.9 1.7 0.00 0.00 0.00 84 1010.8
20260510040328 37 266 0.0 1.7 0.00 0.00 0.00 85 1010.7
20260510034813 36 240 0.9 2.6 0.00 0.00 0.00 86 1010.6
20260510033332 37 267 0.0 1.7 0.00 0.00 0.00 86 1010.6
20260510031847 37 233 0.0 0.9 0.00 0.00 0.00 86 1010.5
20260510030325 37 244 0.9 4.3 0.00 0.00 0.00 85 1010.7
20260510024831 38 351 3.5 7.8 0.00 0.00 0.00 81 1010.8
20260510023325 39 317 2.6 5.2 0.00 0.00 0.00 77 1010.5
20260510021845 38 327 0.0 3.5 0.00 0.00 0.00 79 1010.2
20260510020319 38 318 0.9 3.5 0.00 0.00 0.00 81 1010.0
20260510014832 38 313 1.7 2.6 0.00 0.00 0.00 83 1009.7
20260510013346 38 341 0.9 5.2 0.00 0.00 0.00 84 1009.4
20260510011822 38 297 2.6 8.7 0.00 0.00 0.00 82 1009.3
20260510010322 39 18 2.6 7.0 0.00 0.00 0.00 78 1009.1
20260510004851 39 356 1.7 8.7 0.00 0.00 0.00 76 1008.9
20260510003328 40 276 3.5 6.1 0.00 0.00 0.00 73 1008.8
20260510001825 40 256 0.9 4.3 0.00 0.00 0.00 73 1008.4
20260510000345 40 147 0.9 6.1 0.00 0.00 0.00 71 1008.2
20260509234853 41 299 2.6 7.8 0.00 0.00 0.00 69 1008.2
20260509233348 41 222 1.7 6.1 0.00 0.00 0.00 67 1008.1
20260509231827 42 283 3.5 11.3 0.00 0.00 0.00 65 1007.7
20260509230324 42 288 2.6 7.8 0.00 0.00 0.00 63 1007.6
20260509224817 42 251 2.6 6.1 0.00 0.00 0.00 63 1007.5
20260509223313 42 240 1.7 6.1 0.00 0.00 0.00 66 1007.4
20260509221826 43 261 2.6 6.1 0.00 0.00 0.00 64 1007.2
20260509220324 44 281 2.6 7.0 0.00 0.00 0.00 62 1006.9
20260509214916 45 219 2.6 5.2 0.00 0.00 0.00 60 1006.8
20260509213329 46 245 2.6 5.2 0.00 0.00 0.00 60 1006.6
20260509211842 45 352 0.9 4.3 0.00 0.00 0.00 66 1006.4
20260509210316 44 335 1.7 5.2 0.00 0.00 0.00 66 1006.3
20260509204852 43 288 1.7 4.3 0.00 0.00 0.00 67 1006.1
20260509203327 42 253 0.9 5.2 0.00 0.00 0.00 70 1006.0
20260509201825 42 279 2.6 6.1 0.00 0.00 0.00 71 1006.0
20260509200341 43 5 1.7 6.1 0.00 0.00 0.00 69 1005.6
20260509194815 44 24 4.3 7.8 0.00 0.00 0.00 64 1005.5
20260509193330 45 352 2.6 6.1 0.00 0.00 0.00 61 1005.1
20260509191827 46 8 2.6 8.7 0.00 0.00 0.00 59 1004.8
20260509190346 46 305 5.2 11.3 0.00 0.00 0.00 58 1004.5
20260509184813 45 316 2.6 8.7 0.00 0.00 0.00 62 1004.3
20260509183314 45 336 2.6 7.8 0.00 0.00 0.00 63 1004.0
20260509181851 45 330 2.6 9.6 0.00 0.00 0.00 61 1003.7
20260509180313 45 8 3.5 9.6 0.00 0.00 0.00 64 1003.5
20260509174825 45 50 2.6 8.7 0.00 0.00 0.00 65 1003.0
20260509173321 44 348 3.5 7.8 0.00 0.00 0.00 68 1002.8
20260509171841 45 293 4.3 8.7 0.00 0.00 0.00 65 1002.4
20260509170335 45 260 1.7 8.7 0.00 0.00 0.00 64 1001.9
20260509164825 45 302 5.2 9.6 0.00 0.00 0.00 63 1001.7
20260509163319 45 9 4.3 8.7 0.00 0.00 0.00 61 1001.5
20260509161834 45 320 3.5 13.9 0.00 0.00 0.00 62 1001.2
20260509160313 45 336 2.6 12.2 0.00 0.00 0.00 62 1001.0
20260509154841 45 194 3.5 7.0 0.00 0.00 0.00 60 1000.8
20260509153320 46 330 4.3 9.6 0.00 0.00 0.00 56 1000.4
20260509151816 46 224 3.5 11.3 0.00 0.00 0.00 54 1000.0
20260509150336 45 147 5.2 11.3 0.00 0.00 0.00 53 999.8
20260509144844 45 231 2.6 6.1 0.00 0.00 0.00 55 999.6
20260509143321 43 243 5.2 9.6 0.00 0.00 0.00 58 999.4
20260509141825 42 229 0.9 6.1 0.00 0.00 0.00 62 999.2
20260509140322 41 262 2.6 7.0 0.00 0.00 0.00 61 999.1
20260509134838 41 303 2.6 7.8 0.00 0.00 0.00 64 998.9
20260509133315 41 344 2.6 7.0 0.00 0.00 0.00 65 998.8
20260509131834 41 274 3.5 7.0 0.00 0.00 0.00 67 998.7
20260509130313 42 262 2.6 5.2 0.00 0.00 0.00 68 998.5
20260509124821 42 243 1.7 7.0 0.00 0.00 0.00 69 998.3
20260509123321 43 215 1.7 6.1 0.00 0.00 0.00 68 998.1
20260509121818 43 249 0.9 6.1 0.00 0.00 0.00 66 998.0
20260509120320 43 274 0.9 6.1 0.00 0.00 0.00 65 998.0
20260509114851 42 328 1.7 3.5 0.00 0.00 0.00 66 998.0
20260509113327 43 259 1.7 4.3 0.00 0.00 0.00 64 998.0
20260509111831 42 245 0.9 4.3 0.00 0.00 0.00 64 997.7
20260509110326 42 262 0.9 4.3 0.00 0.00 0.00 63 997.6
20260509104817 42 269 0.9 4.3 0.00 0.00 0.00 62 997.5
20260509103337 42 291 0.9 4.3 0.00 0.00 0.00 63 997.4
20260509101817 43 259 0.9 3.5 0.00 0.00 0.00 63 997.3
20260509100315 44 262 0.0 2.6 0.00 0.00 0.00 62 997.3
20260509094813 44 245 0.9 3.5 0.00 0.00 0.00 60 997.3
20260509093332 45 256 0.9 1.7 0.00 0.00 0.00 59 997.1
20260509091850 46 250 0.0 2.6 0.00 0.00 0.00 57 997.2
20260509090330 47 223 0.9 1.7 0.00 0.00 0.00 57 997.4
20260509084819 47 240 0.0 4.3 0.00 0.00 0.00 58 997.4
20260509083320 47 322 0.9 2.6 0.00 0.00 0.00 55 997.1
20260509081818 47 328 0.0 2.6 0.00 0.00 0.00 55 997.2
20260509080317 47 270 0.0 1.7 0.00 0.00 0.00 56 997.1
20260509074829 46 239 0.0 0.9 0.00 0.00 0.00 57 997.2
20260509073347 46 315 0.0 0.9 0.00 0.00 0.00 57 997.5
20260509071828 47 348 0.0 0.0 0.00 0.00 0.00 56 997.6